Location: Nelson
(41.2830°S, 173.2830°E)
Time: 01:23:46
(UTC+13:00)

ATLAS CENTAUR R/B - Pass Details

Date: 28 September 2021
Orbit: 459 x 683 km, 64.6° (Epoch: 22 October)

Event Time Altitude Azimuth Distance (km) Brightness Sun altitude
Rises 06:03:29 0° 197° (SSW) 2,658 4.8 -12.5°
Reaches altitude 10° 06:07:18 10° 159° (SSE) 1,710 4.3 -11.8°
Maximum altitude 06:08:23 11° 142° (SE) 1,634 4.5 -11.6°
Drops below altitude 10° 06:09:28 10° 125° (SE) 1,681 5.0 -11.4°
Sets 06:13:06 0° 87° (E) 2,519 6.4 -10.8°
